sat.trackr.live / text

‹ back to catalog

STARLINK-36539

NORAD 67446 · 2026-008B

PAYLOAD ACTIVE UNKNOWN

§ Identity

Operator
Country
US
Launch date
2026-01-14
Launch site
AFETR
Launch vehicle
Mass (kg)
RCS (m²)

Purposes: comms

External: N2YO · Heavens-Above · Gunter

§ Orbital elements

Epoch: 2026-05-24T10:50:16.499904Z

Period
94.27 min
Inclination
43.0010°
Eccentricity
0.0001421
Mean motion
15.27592765 rev/d
Perigee alt
482.0 km
Apogee alt
484.0 km
Semi-major
6,861.1 km
B*
4.7191e-4
RAAN
137.8305°
Arg perigee
273.7985°
Mean anomaly
86.2704°
Rev number
2,115

§ Raw data

STARLINK-365391 67446U 26008B   26144.45157986  .00012751  00000+0  47191-3 0  99952 67446  43.0010 137.8305 0001421 273.7985  86.2704 15.27592765 21158

JSON: /api/v1/satellites/67446 · /tle

For live sub-satellite position, see the globe view (requires WebGL).

§ Visibility from observer

Set your observer location to see the next 7 days of passes ≥ 10°. The values pass through the URL so the page stays shareable.

No JS? Fill the form by hand. The geolocation button needs JavaScript.